Date,TemperatureHighF,TemperatureAvgF,TemperatureLowF,DewpointHighF,DewpointAvgF,DewpointLowF,HumidityHigh,HumidityAvg,HumidityLow,PressureMaxIn,PressureMinIn,WindSpeedMaxMPH,WindSpeedAvgMPH,GustSpeedMaxMPH,PrecipitationSumIn
2013-1-1,19,8,-4,-100,-100,-100,0,0,100,0.00,40.00,0,-999,0,0.01
2013-1-2,19,3,-11,-100,-100,-100,0,0,100,0.00,40.00,0,-999,0,0.00
2013-1-3,35,18,1,-100,-100,-100,0,0,100,0.00,40.00,0,-999,0,0.01
2013-1-4,35,21,11,-100,-100,-100,0,0,100,0.00,40.00,0,-999,0,0.02
2013-1-5,27,15,8,-100,-100,-100,0,0,100,0.00,40.00,0,-999,0,0.00
2013-1-6,33,21,14,-100,-100,-100,0,0,100,0.00,40.00,0,-999,0,0.01
2013-1-7,22,18,14,-100,-100,-100,0,0,100,0.00,40.00,0,-999,0,0.00
2013-1-8,21,18,16,-100,-100,-100,0,0,100,0.00,40.00,0,-999,0,0.01
2013-1-9,30,24,18,-100,-100,-100,0,0,100,0.00,40.00,0,-999,0,0.01
2013-1-10,31,24,16,-100,-100,-100,0,0,100,0.00,40.00,0,-999,0,0.00
2013-1-11,16,5,-6,-100,-100,-100,0,0,100,0.00,40.00,0,-999,0,0.00
2013-1-12,9,-5,-15,-100,-100,-100,0,0,100,0.00,40.00,0,-999,0,0.00
2013-1-13,2,-10,-20,-100,-100,-100,0,0,100,0.00,40.00,0,-999,0,0.00
2013-1-14,1,-7,-16,-100,-100,-100,0,0,100,0.00,40.00,0,-999,0,0.01
2013-1-15,18,10,1,-100,-100,-100,0,0,100,0.00,40.00,0,-999,0,0.02
2013-1-16,24,17,10,-100,-100,-100,0,0,100,0.00,40.00,0,-999,0,0.01
2013-1-17,32,21,14,-100,-100,-100,0,0,100,0.00,40.00,0,-999,0,0.00
2013-1-18,32,23,18,-100,-100,-100,0,0,100,0.00,40.00,0,-999,0,0.01
2013-1-19,29,20,17,-100,-100,-100,0,0,100,0.00,40.00,0,-999,0,0.00
2013-1-20,29,20,11,-100,-100,-100,0,0,100,0.00,40.00,0,-999,0,0.00
2013-1-21,30,24,20,-100,-100,-100,0,0,100,0.00,40.00,0,-999,0,0.01
2013-1-22,35,27,20,-100,-100,-100,0,0,100,0.00,40.00,0,-999,0,0.00
2013-1-23,35,29,26,-100,-100,-100,0,0,100,0.00,40.00,0,-999,0,0.00
2013-1-24,29,26,22,-100,-100,-100,0,0,100,0.00,40.00,0,-999,0,0.00
2013-1-25,29,25,22,-100,-100,-100,0,0,100,0.00,40.00,0,-999,0,0.01
2013-1-26,33,28,26,-100,-100,-100,0,0,100,0.00,40.00,0,-999,0,0.01
2013-1-27,29,24,17,-100,-100,-100,0,0,100,0.00,40.00,0,-999,0,0.01
2013-1-28,15,10,5,-100,-100,-100,0,0,100,0.00,40.00,0,-999,0,0.01
2013-1-29,13,6,-5,-100,-100,-100,0,0,100,0.00,40.00,0,-999,0,0.00
2013-1-30,21,15,6,-100,-100,-100,0,0,100,0.00,40.00,0,-999,0,0.02
2013-1-31,25,22,19,-100,-100,-100,0,0,100,0.00,40.00,0,-999,0,0.01
2013-2-1,26,21,18,-100,-100,-100,0,0,100,0.00,40.00,0,-999,0,0.01
2013-2-2,27,19,15,-100,-100,-100,0,0,100,0.00,40.00,0,-999,0,0.00
2013-2-3,28,20,13,-100,-100,-100,0,0,100,0.00,40.00,0,-999,0,0.00
2013-2-4,26,21,17,-100,-100,-100,0,0,100,0.00,40.00,0,-999,0,0.00
2013-2-5,29,24,20,-100,-100,-100,0,0,100,0.00,40.00,0,-999,0,0.01
2013-2-6,26,20,11,-100,-100,-100,0,0,100,0.00,40.00,0,-999,0,0.00
2013-2-7,29,16,7,-100,-100,-100,0,0,100,0.00,40.00,0,-999,0,0.00
2013-2-8,29,18,10,-100,-100,-100,0,0,100,0.00,40.00,0,-999,0,0.00
2013-2-9,24,16,11,-100,-100,-100,0,0,100,0.00,40.00,0,-999,0,0.00
2013-2-10,15,6,-10,-100,-100,-100,0,0,100,0.00,40.00,0,-999,0,0.00
2013-2-11,18,5,-13,-100,-100,-100,0,0,100,0.00,40.00,0,-999,0,0.01
2013-2-12,22,14,5,-100,-100,-100,0,0,100,0.00,40.00,0,-999,0,0.01
2013-2-13,25,19,16,-100,-100,-100,0,0,100,0.00,40.00,0,-999,0,0.02
2013-2-14,22,16,11,-100,-100,-100,0,0,100,0.00,40.00,0,-999,0,0.01
2013-2-15,25,18,13,-100,-100,-100,0,0,100,0.00,40.00,0,-999,0,0.01
2013-2-16,28,21,18,-100,-100,-100,0,0,100,0.00,40.00,0,-999,0,0.00
2013-2-17,22,18,9,-100,-100,-100,0,0,100,0.00,40.00,0,-999,0,0.01
2013-2-18,19,11,5,-100,-100,-100,0,0,100,0.00,40.00,0,-999,0,0.00
2013-2-19,30,15,3,-100,-100,-100,0,0,100,0.00,40.00,0,-999,0,0.00
2013-2-20,31,19,9,-100,-100,-100,0,0,100,0.00,40.00,0,-999,0,0.01
2013-2-21,23,12,3,-100,-100,-100,0,0,100,0.00,40.00,0,-999,0,0.00
2013-2-22,18,12,6,-100,-100,-100,0,0,100,0.00,40.00,0,-999,0,0.01
2013-2-23,23,16,9,-100,-100,-100,0,0,100,0.00,40.00,0,-999,0,0.01
2013-2-24,19,10,2,-100,-100,-100,0,0,100,0.00,40.00,0,-999,0,0.00
2013-2-25,25,15,6,-100,-100,-100,0,0,100,0.00,40.00,0,-999,0,0.01
2013-2-26,21,9,-1,-100,-100,-100,0,0,100,0.00,40.00,0,-999,0,0.00
2013-2-27,22,12,6,-100,-100,-100,0,0,100,0.00,40.00,0,-999,0,0.01
2013-2-28,24,15,8,-100,-100,-100,0,0,100,0.00,40.00,0,-999,0,0.01
2013-3-1,35,26,17,-100,-100,-100,0,0,100,0.00,40.00,0,-999,0,0.01
2013-3-2,38,30,23,-100,-100,-100,0,0,100,0.00,40.00,0,-999,0,0.00
2013-3-3,31,24,8,-100,-100,-100,0,0,100,0.00,40.00,0,-999,0,0.01
2013-3-4,15,8,-3,-100,-100,-100,0,0,100,0.00,40.00,0,-999,0,0.00
2013-3-5,28,15,1,-100,-100,-100,0,0,100,0.00,40.00,0,-999,0,0.01
2013-3-6,38,23,9,-100,-100,-100,0,0,100,0.00,40.00,0,-999,0,0.01
2013-3-7,28,21,12,-100,-100,-100,0,0,100,0.00,40.00,0,-999,0,0.01
2013-3-8,36,25,15,-100,-100,-100,0,0,100,0.00,40.00,0,-999,0,0.00
2013-3-9,29,15,4,-100,-100,-100,0,0,100,0.00,40.00,0,-999,0,0.00
2013-3-10,34,22,5,-100,-100,-100,0,0,100,0.00,40.00,0,-999,0,0.01
2013-3-11,27,23,17,-100,-100,-100,0,0,100,0.00,40.00,0,-999,0,0.01
2013-3-12,30,22,13,-100,-100,-100,0,0,100,0.00,40.00,0,-999,0,0.01
2013-3-13,41,33,27,-100,-100,-100,0,0,100,0.00,40.00,0,-999,0,0.01
2013-3-14,46,38,29,-100,-100,-100,0,0,100,0.00,40.00,0,-999,0,0.00
2013-3-15,44,36,28,-100,-100,-100,0,0,100,0.00,40.00,0,-999,0,0.00
2013-3-16,38,29,17,-100,-100,-100,0,0,100,0.00,40.00,0,-999,0,0.00
2013-3-17,27,18,9,-100,-100,-100,0,0,100,0.00,40.00,0,-999,0,0.03
2013-3-18,18,12,5,-100,-100,-100,0,0,100,0.00,40.00,0,-999,0,0.02
2013-3-19,23,16,3,-100,-100,-100,0,0,100,0.00,40.00,0,-999,0,0.01
2013-3-20,33,24,7,-100,-100,-100,0,0,100,0.00,40.00,0,-999,0,0.02
2013-3-21,27,21,2,-100,-100,-100,0,0,100,0.00,40.00,0,-999,0,0.02
2013-3-22,17,8,-4,-100,-100,-100,0,0,100,0.00,40.00,0,-999,0,0.00
2013-3-23,15,1,-13,-100,-100,-100,0,0,100,0.00,40.00,0,-999,0,0.00
2013-3-24,17,3,-13,-100,-100,-100,0,0,100,0.00,40.00,0,-999,0,0.00
2013-3-25,28,12,-10,-100,-100,-100,0,0,100,0.00,40.00,0,-999,0,0.01
2013-3-26,35,23,10,-100,-100,-100,0,0,100,0.00,40.00,0,-999,0,0.01
2013-3-27,36,24,8,-100,-100,-100,0,0,100,0.00,40.00,0,-999,0,0.00
2013-3-28,42,30,14,-100,-100,-100,0,0,100,0.00,40.00,0,-999,0,0.01
2013-3-29,42,33,20,-100,-100,-100,0,0,100,0.00,40.00,0,-999,0,0.00
2013-3-30,38,31,21,-100,-100,-100,0,0,100,0.00,40.00,0,-999,0,0.01
2013-3-31,45,32,20,-100,-100,-100,0,0,100,0.00,40.00,0,-999,0,0.00
2013-4-1,43,29,18,-100,-100,-100,0,0,100,0.00,40.00,0,-999,0,0.00
2013-4-2,47,31,14,-100,-100,-100,0,0,100,0.00,40.00,0,-999,0,0.00
2013-4-3,46,35,25,-100,-100,-100,0,0,100,0.00,40.00,0,-999,0,0.01
2013-4-4,47,37,31,-100,-100,-100,0,0,100,0.00,40.00,0,-999,0,0.00
2013-4-5,40,34,28,-100,-100,-100,0,0,100,0.00,40.00,0,-999,0,0.01
2013-4-6,37,31,28,-100,-100,-100,0,0,100,0.00,40.00,0,-999,0,0.01
2013-4-7,35,29,26,-100,-100,-100,0,0,100,0.00,40.00,0,-999,0,0.04
2013-4-8,25,18,8,-100,-100,-100,0,0,100,0.00,40.00,0,-999,0,0.02
2013-4-9,28,14,4,-100,-100,-100,0,0,100,0.00,40.00,0,-999,0,0.00
2013-4-10,36,23,-4,-100,-100,-100,0,0,100,0.00,40.00,0,-999,0,0.01
2013-4-11,37,29,22,-100,-100,-100,0,0,100,0.00,40.00,0,-999,0,0.01
2013-4-12,35,26,10,-100,-100,-100,0,0,100,0.00,40.00,0,-999,0,0.00
2013-4-13,33,26,15,-100,-100,-100,0,0,100,0.00,40.00,0,-999,0,0.04
2013-4-14,26,14,1,-100,-100,-100,0,0,100,0.00,40.00,0,-999,0,0.02
2013-4-15,26,12,-7,-100,-100,-100,0,0,100,0.00,40.00,0,-999,0,0.00
2013-4-16,19,6,-2,-100,-100,-100,0,0,100,0.00,40.00,0,-999,0,0.00
2013-4-17,23,6,-10,-100,-100,-100,0,0,100,0.00,40.00,0,-999,0,0.00
2013-4-18,33,17,-7,-100,-100,-100,0,0,100,0.00,40.00,0,-999,0,0.02
2013-4-19,36,28,21,-100,-100,-100,0,0,100,0.00,40.00,0,-999,0,0.01
2013-4-20,38,29,24,-100,-100,-100,0,0,100,0.00,40.00,0,-999,0,0.01
2013-4-21,38,28,22,-100,-100,-100,0,0,100,0.00,40.00,0,-999,0,0.02
2013-4-22,23,13,-4,-100,-100,-100,0,0,100,0.00,40.00,0,-999,0,0.01
2013-4-23,30,14,-12,-100,-100,-100,0,0,100,0.00,40.00,0,-999,0,0.00
2013-4-24,38,32,27,-100,-100,-100,0,0,100,0.00,40.00,0,-999,0,0.00
2013-4-25,45,36,23,-100,-100,-100,0,0,100,0.00,40.00,0,-999,0,0.01
2013-4-26,51,39,21,-100,-100,-100,0,0,100,0.00,40.00,0,-999,0,0.00
2013-4-27,53,41,28,-100,-100,-100,0,0,100,0.00,40.00,0,-999,0,0.00
2013-4-28,42,37,33,-100,-100,-100,0,0,100,0.00,40.00,0,-999,0,0.01
2013-4-29,37,32,24,-100,-100,-100,0,0,100,0.00,40.00,0,-999,0,0.02
2013-4-30,31,22,15,-100,-100,-100,0,0,100,0.00,40.00,0,-999,0,0.01
2013-5-1,30,18,4,-100,-100,-100,0,0,100,0.00,40.00,0,-999,0,0.01
2013-5-2,45,27,4,-100,-100,-100,0,0,100,0.00,40.00,0,-999,0,0.01
2013-5-3,45,34,24,-100,-100,-100,0,0,100,0.00,40.00,0,-999,0,0.01
2013-5-4,43,33,28,-100,-100,-100,0,0,100,0.00,40.00,0,-999,0,0.00
2013-5-5,47,37,28,-100,-100,-100,0,0,100,0.00,40.00,0,-999,0,0.00
2013-5-6,55,39,22,-100,-100,-100,0,0,100,0.00,40.00,0,-999,0,0.00
2013-5-7,54,41,28,-100,-100,-100,0,0,100,0.00,40.00,0,-999,0,0.00
2013-5-8,53,42,31,-100,-100,-100,0,0,100,0.00,40.00,0,-999,0,0.00
2013-5-9,53,39,26,-100,-100,-100,0,0,100,0.00,40.00,0,-999,0,0.00
2013-5-10,52,40,28,-100,-100,-100,0,0,100,0.00,40.00,0,-999,0,0.00
2013-5-11,53,43,28,-100,-100,-100,0,0,100,0.00,40.00,0,-999,0,0.00
2013-5-12,62,50,39,-100,-100,-100,0,0,100,0.00,40.00,0,-999,0,0.00
2013-5-13,62,52,43,-100,-100,-100,0,0,100,0.00,40.00,0,-999,0,0.00
2013-5-14,58,51,40,-100,-100,-100,0,0,100,0.00,40.00,0,-999,0,0.00
2013-5-15,58,46,32,-100,-100,-100,0,0,100,0.00,40.00,0,-999,0,0.00
2013-5-16,49,40,34,-100,-100,-100,0,0,100,0.00,40.00,0,-999,0,0.00
2013-5-17,47,38,34,-100,-100,-100,0,0,100,0.00,40.00,0,-999,0,0.02
2013-5-18,45,36,33,-100,-100,-100,0,0,100,0.00,40.00,0,-999,0,0.02
2013-5-19,44,37,34,-100,-100,-100,0,0,100,0.00,40.00,0,-999,0,0.02
2013-5-20,44,36,31,-100,-100,-100,0,0,100,0.00,40.00,0,-999,0,0.01
2013-5-21,54,39,23,-100,-100,-100,0,0,100,0.00,40.00,0,-999,0,0.00
2013-5-22,53,40,29,-100,-100,-100,0,0,100,0.00,40.00,0,-999,0,0.01
2013-5-23,54,43,36,-100,-100,-100,0,0,100,0.00,40.00,0,-999,0,0.02
2013-5-24,50,38,27,-100,-100,-100,0,0,100,0.00,40.00,0,-999,0,0.02
2013-5-25,54,42,27,-100,-100,-100,0,0,100,0.00,40.00,0,-999,0,0.00
2013-5-26,55,42,30,-100,-100,-100,0,0,100,0.00,40.00,0,-999,0,0.00
2013-5-27,44,38,32,-100,-100,-100,0,0,100,0.00,40.00,0,-999,0,0.01
2013-5-28,49,38,33,-100,-100,-100,0,0,100,0.00,40.00,0,-999,0,0.01
2013-5-29,43,37,34,-100,-100,-100,0,0,100,0.00,40.00,0,-999,0,0.04
2013-5-30,39,35,32,-100,-100,-100,0,0,100,0.00,40.00,0,-999,0,0.01
2013-5-31,38,33,29,-100,-100,-100,0,0,100,0.00,40.00,0,-999,0,0.00
2013-6-1,55,40,27,-100,-100,-100,0,0,100,0.00,40.00,0,-999,0,0.00
2013-6-2,54,44,31,-100,-100,-100,0,0,100,0.00,40.00,0,-999,0,0.00
2013-6-3,43,36,31,-100,-100,-100,0,0,100,0.00,40.00,0,-999,0,0.01
2013-6-4,44,38,30,-100,-100,-100,0,0,100,0.00,40.00,0,-999,0,0.00
2013-6-5,57,43,24,-100,-100,-100,0,0,100,0.00,40.00,0,-999,0,0.00
2013-6-6,57,46,33,-100,-100,-100,0,0,100,0.00,40.00,0,-999,0,0.00
2013-6-7,58,48,36,-100,-100,-100,0,0,100,0.00,40.00,0,-999,0,0.01
2013-6-8,58,49,39,-100,-100,-100,0,0,100,0.00,40.00,0,-999,0,0.00
2013-6-9,65,53,41,-100,-100,-100,0,0,100,0.00,40.00,0,-999,0,0.00
2013-6-10,65,54,40,-100,-100,-100,0,0,100,0.00,40.00,0,-999,0,0.00
2013-6-11,64,51,38,-100,-100,-100,0,0,100,0.00,40.00,0,-999,0,0.00
2013-6-12,54,46,39,-100,-100,-100,0,0,100,0.00,40.00,0,-999,0,0.01
2013-6-13,60,48,37,-100,-100,-100,0,0,100,0.00,40.00,0,-999,0,0.01
2013-6-14,46,36,32,-100,-100,-100,0,0,100,0.00,40.00,0,-999,0,0.01
2013-6-15,59,44,30,-100,-100,-100,0,0,100,0.00,40.00,0,-999,0,0.00
2013-6-16,62,46,32,-100,-100,-100,0,0,100,0.00,40.00,0,-999,0,0.00
2013-6-17,63,50,35,-100,-100,-100,0,0,100,0.00,40.00,0,-999,0,0.00
2013-6-18,64,52,38,-100,-100,-100,0,0,100,0.00,40.00,0,-999,0,0.00
2013-6-19,66,50,38,-100,-100,-100,0,0,100,0.00,40.00,0,-999,0,0.00
2013-6-20,49,35,30,-100,-100,-100,0,0,100,0.00,40.00,0,-999,0,0.00
2013-6-22,50,43,36,-100,-100,-100,0,0,100,0.00,40.00,0,-999,0,0.00
2013-6-23,58,47,34,-100,-100,-100,0,0,100,0.00,40.00,0,-999,0,0.00
2013-6-24,62,50,37,-100,-100,-100,0,0,100,0.00,40.00,0,-999,0,0.01
2013-6-25,56,45,40,-100,-100,-100,0,0,100,0.00,40.00,0,-999,0,0.01
2013-6-26,57,51,43,-100,-100,-100,0,0,100,0.00,40.00,0,-999,0,0.00
2013-6-27,71,59,45,-100,-100,-100,0,0,100,0.00,40.00,0,-999,0,0.00
2013-6-28,71,60,44,-100,-100,-100,0,0,100,0.00,40.00,0,-999,0,0.01
2013-6-29,70,55,43,-100,-100,-100,0,0,100,0.00,40.00,0,-999,0,0.02
2013-6-30,68,56,44,-100,-100,-100,0,0,100,0.00,40.00,0,-999,0,0.01
2013-7-1,68,56,45,-100,-100,-100,0,0,100,0.00,40.00,0,-999,0,0.00
2013-7-2,73,57,40,-100,-100,-100,0,0,100,0.00,40.00,0,-999,0,0.00
2013-7-3,72,61,50,-100,-100,-100,0,0,100,0.00,40.00,0,-999,0,0.01
2013-7-4,69,56,45,-100,-100,-100,0,0,100,0.00,40.00,0,-999,0,0.02
2013-7-5,59,48,44,-100,-100,-100,0,0,100,0.00,40.00,0,-999,0,0.02
2013-7-6,62,47,40,-100,-100,-100,0,0,100,0.00,40.00,0,-999,0,0.02
2013-7-7,66,52,41,-100,-100,-100,0,0,100,0.00,40.00,0,-999,0,0.02
2013-7-8,65,51,42,-100,-100,-100,0,0,100,0.00,40.00,0,-999,0,0.02
2013-7-9,69,55,41,-100,-100,-100,0,0,100,0.00,40.00,0,-999,0,0.01
2013-7-10,71,57,42,-100,-100,-100,0,0,100,0.00,40.00,0,-999,0,0.01
2013-7-11,70,57,47,-100,-100,-100,0,0,100,0.00,40.00,0,-999,0,0.02
2013-7-12,63,53,45,-100,-100,-100,0,0,100,0.00,40.00,0,-999,0,0.01
2013-7-13,65,56,42,-100,-100,-100,0,0,100,0.00,40.00,0,-999,0,0.02
2013-7-14,65,53,41,-100,-100,-100,0,0,100,0.00,40.00,0,-999,0,0.00
2013-7-15,71,55,42,-100,-100,-100,0,0,100,0.00,40.00,0,-999,0,0.00
2013-7-16,66,53,48,-100,-100,-100,0,0,100,0.00,40.00,0,-999,0,0.03
2013-7-17,69,56,47,-100,-100,-100,0,0,100,0.00,40.00,0,-999,0,0.01
2013-7-18,72,61,45,-100,-100,-100,0,0,100,0.00,40.00,0,-999,0,0.00
2013-7-19,71,58,42,-100,-100,-100,0,0,100,0.00,40.00,0,-999,0,0.01
2013-7-20,71,55,42,-100,-100,-100,0,0,100,0.00,40.00,0,-999,0,0.01
2013-7-21,72,57,42,-100,-100,-100,0,0,100,0.00,40.00,0,-999,0,0.01
2013-7-22,73,58,42,-100,-100,-100,0,0,100,0.00,40.00,0,-999,0,0.01
2013-7-23,70,55,40,-100,-100,-100,0,0,100,0.00,40.00,0,-999,0,0.00
2013-7-24,71,56,43,-100,-100,-100,0,0,100,0.00,40.00,0,-999,0,0.02
2013-7-25,68,57,47,-100,-100,-100,0,0,100,0.00,40.00,0,-999,0,0.00
2013-7-26,72,57,43,-100,-100,-100,0,0,100,0.00,40.00,0,-999,0,0.00
2013-7-27,63,53,44,-100,-100,-100,0,0,100,0.00,40.00,0,-999,0,0.03
2013-7-28,60,50,43,-100,-100,-100,0,0,100,0.00,40.00,0,-999,0,0.00
2013-7-29,59,48,39,-100,-100,-100,0,0,100,0.00,40.00,0,-999,0,0.02
2013-7-30,60,47,38,-100,-100,-100,0,0,100,0.00,40.00,0,-999,0,0.01
2013-7-31,67,52,37,-100,-100,-100,0,0,100,0.00,40.00,0,-999,0,1.15
2013-8-1,64,54,44,-100,-100,-100,0,0,100,0.00,40.00,0,-999,0,0.01
2013-8-2,62,53,41,-100,-100,-100,0,0,100,0.00,40.00,0,-999,0,0.01
2013-8-3,66,53,39,-100,-100,-100,0,0,100,0.00,40.00,0,-999,0,0.00
2013-8-4,67,56,41,-100,-100,-100,0,0,100,0.00,40.00,0,-999,0,0.00
2013-8-5,70,54,40,-100,-100,-100,0,0,100,0.00,40.00,0,-999,0,0.00
2013-8-6,66,55,40,-100,-100,-100,0,0,100,0.00,40.00,0,-999,0,0.00
2013-8-7,68,53,39,-100,-100,-100,0,0,100,0.00,40.00,0,-999,0,0.01
2013-8-8,67,49,39,-100,-100,-100,0,0,100,0.00,40.00,0,-999,0,0.00
2013-8-9,57,47,41,-100,-100,-100,0,0,100,0.00,40.00,0,-999,0,0.02
2013-8-10,64,50,39,-100,-100,-100,0,0,100,0.00,40.00,0,-999,0,0.02
2013-8-11,63,50,40,-100,-100,-100,0,0,100,0.00,40.00,0,-999,0,0.00
2013-8-12,64,53,40,-100,-100,-100,0,0,100,0.00,40.00,0,-999,0,0.00
2013-8-13,65,48,42,-100,-100,-100,0,0,100,0.00,40.00,0,-999,0,0.01
2013-8-14,65,52,40,-100,-100,-100,0,0,100,0.00,40.00,0,-999,0,0.00
2013-8-15,71,56,41,-100,-100,-100,0,0,100,0.00,40.00,0,-999,0,0.00
2013-8-16,71,57,43,-100,-100,-100,0,0,100,0.00,40.00,0,-999,0,0.00
2013-8-17,72,60,46,-100,-100,-100,0,0,100,0.00,40.00,0,-999,0,0.00
2013-8-18,72,60,50,-100,-100,-100,0,0,100,0.00,40.00,0,-999,0,0.00
2013-8-19,72,59,44,-100,-100,-100,0,0,100,0.00,40.00,0,-999,0,0.00
2013-8-20,70,58,49,-100,-100,-100,0,0,100,0.00,40.00,0,-999,0,0.00
2013-8-21,68,52,44,-100,-100,-100,0,0,100,0.00,40.00,0,-999,0,0.00
2013-8-22,63,53,43,-100,-100,-100,0,0,100,0.00,40.00,0,-999,0,0.01
2013-8-23,65,54,44,-100,-100,-100,0,0,100,0.00,40.00,0,-999,0,0.02
2013-8-24,59,50,45,-100,-100,-100,0,0,100,0.00,40.00,0,-999,0,0.01
2013-8-25,66,55,43,-100,-100,-100,0,0,100,0.00,40.00,0,-999,0,0.01
2013-8-26,65,54,48,-100,-100,-100,0,0,100,0.00,40.00,0,-999,0,0.01
2013-8-27,62,52,45,-100,-100,-100,0,0,100,0.00,40.00,0,-999,0,0.01
2013-8-28,65,59,50,-100,-100,-100,0,0,100,0.00,40.00,0,-999,0,0.00
2013-8-29,65,54,45,-100,-100,-100,0,0,100,0.00,40.00,0,-999,0,0.00
2013-8-30,65,58,48,-100,-100,-100,0,0,100,0.00,40.00,0,-999,0,0.02
2013-8-31,67,53,42,-100,-100,-100,0,0,100,0.00,40.00,0,-999,0,0.00
2013-9-1,70,54,41,-100,-100,-100,0,0,100,0.00,40.00,0,-999,0,0.01
2013-9-2,64,52,44,-100,-100,-100,0,0,100,0.00,40.00,0,-999,0,0.05
2013-9-3,64,53,48,-100,-100,-100,0,0,100,0.00,40.00,0,-999,0,0.02
2013-9-4,64,55,47,-100,-100,-100,0,0,100,0.00,40.00,0,-999,0,0.01
2013-9-5,68,57,45,-100,-100,-100,0,0,100,0.00,40.00,0,-999,0,0.02
2013-9-6,66,54,48,-100,-100,-100,0,0,100,0.00,40.00,0,-999,0,0.01
2013-9-7,64,54,45,-100,-100,-100,0,0,100,0.00,40.00,0,-999,0,0.01
2013-9-8,59,50,41,-100,-100,-100,0,0,100,0.00,40.00,0,-999,0,0.00
2013-9-9,56,47,39,-100,-100,-100,0,0,100,0.00,40.00,0,-999,0,0.01
2013-9-10,61,46,35,-100,-100,-100,0,0,100,0.00,40.00,0,-999,0,0.02
2013-9-11,59,52,39,-100,-100,-100,0,0,100,0.00,40.00,0,-999,0,0.00
2013-9-12,56,47,39,-100,-100,-100,0,0,100,0.00,40.00,0,-999,0,0.01
2013-9-13,54,47,39,-100,-100,-100,0,0,100,0.00,40.00,0,-999,0,0.01
2013-9-14,45,44,42,-100,-100,-100,0,0,100,0.00,40.00,0,-999,0,0.02
2013-9-15,52,47,42,-100,-100,-100,0,0,100,0.00,40.00,0,-999,0,0.04
2013-9-16,59,48,41,-100,-100,-100,0,0,100,0.00,40.00,0,-999,0,0.00
2013-9-17,50,44,38,-100,-100,-100,0,0,100,0.00,40.00,0,-999,0,0.02
2013-9-18,39,36,32,-100,-100,-100,0,0,100,0.00,40.00,0,-999,0,0.01
2013-9-19,40,34,30,-100,-100,-100,0,0,100,0.00,40.00,0,-999,0,0.02
2013-9-20,58,43,31,-100,-100,-100,0,0,100,0.00,40.00,0,-999,0,0.00
2013-9-21,59,49,37,-100,-100,-100,0,0,100,0.00,40.00,0,-999,0,0.00
2013-9-22,53,46,40,-100,-100,-100,0,0,100,0.00,40.00,0,-999,0,0.01
2013-9-23,45,39,34,-100,-100,-100,0,0,100,0.00,40.00,0,-999,0,0.00
2013-9-24,52,40,35,-100,-100,-100,0,0,100,0.00,40.00,0,-999,0,0.02
2013-9-25,36,34,29,-100,-100,-100,0,0,100,0.00,40.00,0,-999,0,0.00
2013-9-26,35,29,24,-100,-100,-100,0,0,100,0.00,40.00,0,-999,0,0.01
2013-9-27,32,27,24,-100,-100,-100,0,0,100,0.00,40.00,0,-999,0,0.01
2013-9-28,35,31,27,-100,-100,-100,0,0,100,0.00,40.00,0,-999,0,0.01
2013-9-29,38,36,35,-100,-100,-100,0,0,100,0.00,40.00,0,-999,0,0.01
2013-9-30,39,35,33,-100,-100,-100,0,0,100,0.00,40.00,0,-999,0,0.03
2013-10-1,36,36,35,-100,-100,-100,0,0,100,0.00,40.00,0,-999,0,0.00
2013-10-2,41,35,30,-100,-100,-100,0,0,100,0.00,40.00,0,-999,0,0.01
2013-10-3,30,26,20,-100,-100,-100,0,0,100,0.00,40.00,0,-999,0,0.00
2013-10-4,30,23,17,-100,-100,-100,0,0,100,0.00,40.00,0,-999,0,0.01
2013-10-5,39,29,12,-100,-100,-100,0,0,100,0.00,40.00,0,-999,0,0.01
2013-10-6,47,36,27,-100,-100,-100,0,0,100,0.00,40.00,0,-999,0,0.01
2013-10-7,53,43,32,-100,-100,-100,0,0,100,0.00,40.00,0,-999,0,0.00
2013-10-8,45,35,26,-100,-100,-100,0,0,100,0.00,40.00,0,-999,0,0.00
2013-10-9,42,31,22,-100,-100,-100,0,0,100,0.00,40.00,0,-999,0,0.00
2013-10-10,46,36,27,-100,-100,-100,0,0,100,0.00,40.00,0,-999,0,0.00
2013-10-11,33,30,26,-100,-100,-100,0,0,100,0.00,40.00,0,-999,0,0.00
2013-10-12,35,28,21,-100,-100,-100,0,0,100,0.00,40.00,0,-999,0,0.00
2013-10-13,37,31,24,-100,-100,-100,0,0,100,0.00,40.00,0,-999,0,0.00
2013-10-14,29,26,21,-100,-100,-100,0,0,100,0.00,40.00,0,-999,0,0.01
2013-10-15,33,24,14,-100,-100,-100,0,0,100,0.00,40.00,0,-999,0,0.01
2013-10-16,36,26,21,-100,-100,-100,0,0,100,0.00,40.00,0,-999,0,0.00
2013-10-17,29,25,20,-100,-100,-100,0,0,100,0.00,40.00,0,-999,0,0.00
2013-10-18,30,25,9,-100,-100,-100,0,0,100,0.00,40.00,0,-999,0,0.01
2013-10-19,39,32,25,-100,-100,-100,0,0,100,0.00,40.00,0,-999,0,0.01
2013-10-20,33,30,25,-100,-100,-100,0,0,100,0.00,40.00,0,-999,0,0.00
2013-10-28,30,25,22,-100,-100,-100,0,0,100,0.00,40.00,0,-999,0,0.00
2013-10-29,34,26,16,-100,-100,-100,0,0,100,0.00,40.00,0,-999,0,0.00
2013-10-30,32,29,27,-100,-100,-100,0,0,100,0.00,40.00,0,-999,0,0.00
2013-10-31,29,26,24,-100,-100,-100,0,0,100,0.00,40.00,0,-999,0,0.00
2013-11-1,29,25,21,-100,-100,-100,0,0,100,0.00,40.00,0,-999,0,0.02
2013-11-2,36,32,24,-100,-100,-100,0,0,100,0.00,40.00,0,-999,0,0.01
2013-11-3,32,23,13,-100,-100,-100,0,0,100,0.00,40.00,0,-999,0,0.01
2013-11-4,17,12,6,-100,-100,-100,0,0,100,0.00,40.00,0,-999,0,0.00
2013-11-5,16,11,3,-100,-100,-100,0,0,100,0.00,40.00,0,-999,0,0.01
2013-11-6,23,20,13,-100,-100,-100,0,0,100,0.00,40.00,0,-999,0,0.00
2013-11-7,31,28,24,-100,-100,-100,0,0,100,0.00,40.00,0,-999,0,0.00
2013-11-8,30,24,21,-100,-100,-100,0,0,100,0.00,40.00,0,-999,0,0.01
2013-11-12,42,36,26,-100,-100,-100,0,0,100,0.00,40.00,0,-999,0,0.00
2013-11-13,38,36,32,-100,-100,-100,0,0,100,0.00,40.00,0,-999,0,0.00
2013-11-14,30,25,23,-100,-100,-100,0,0,100,0.00,40.00,0,-999,0,0.00
2013-11-15,23,19,17,-100,-100,-100,0,0,100,0.00,40.00,0,-999,0,0.00
2013-11-16,20,18,15,-100,-100,-100,0,0,100,0.00,40.00,0,-999,0,0.01
2013-11-17,19,16,12,-100,-100,-100,0,0,100,0.00,40.00,0,-999,0,0.00
2013-11-18,31,26,22,-100,-100,-100,0,0,100,0.00,40.00,0,-999,0,0.01
2013-11-19,31,29,27,-100,-100,-100,0,0,100,0.00,40.00,0,-999,0,0.00
2013-11-20,28,27,27,-100,-100,-100,0,0,100,0.00,40.00,0,-999,0,0.00
2013-11-21,15,6,-5,-100,-100,-100,0,0,100,0.00,40.00,0,-999,0,0.00
2013-11-22,25,10,5,-100,-100,-100,0,0,100,0.00,40.00,0,-999,0,0.01
2013-11-23,30,19,5,-100,-100,-100,0,0,100,0.00,40.00,0,-999,0,0.00
2013-11-24,37,26,11,-100,-100,-100,0,0,100,0.00,40.00,0,-999,0,0.00
2013-11-25,30,23,19,-100,-100,-100,0,0,100,0.00,40.00,0,-999,0,0.00
2013-11-26,32,25,19,-100,-100,-100,0,0,100,0.00,40.00,0,-999,0,0.00
2013-11-27,36,27,18,-100,-100,-100,0,0,100,0.00,40.00,0,-999,0,0.00
2013-11-28,38,28,19,-100,-100,-100,0,0,100,0.00,40.00,0,-999,0,0.00
2013-11-29,35,28,21,-100,-100,-100,0,0,100,0.00,40.00,0,-999,0,0.00
2013-11-30,27,25,24,-100,-100,-100,0,0,100,0.00,40.00,0,-999,0,0.01
2013-12-1,26,25,24,-100,-100,-100,0,0,100,0.00,40.00,0,-999,0,0.01
2013-12-2,29,26,16,-100,-100,-100,0,0,100,0.00,40.00,0,-999,0,0.04
2013-12-3,5,-6,-13,-100,-100,-100,0,0,100,0.00,40.00,0,-999,0,0.00
2013-12-4,-3,-8,-13,-100,-100,-100,0,0,100,0.00,40.00,0,-999,0,0.00
2013-12-5,-8,-14,-30,-100,-100,-100,0,0,100,0.00,40.00,0,-999,0,0.00
2013-12-6,-7,-16,-32,-100,-100,-100,0,0,100,0.00,40.00,0,-999,0,0.01
2013-12-7,5,-7,-17,-100,-100,-100,0,0,100,0.00,40.00,0,-999,0,0.01
2013-12-8,-5,-9,-15,-100,-100,-100,0,0,100,0.00,40.00,0,-999,0,0.00
2013-12-9,-1,-6,-15,-100,-100,-100,0,0,100,0.00,40.00,0,-999,0,0.01
2013-12-10,5,2,-4,-100,-100,-100,0,0,100,0.00,40.00,0,-999,0,0.00
2013-12-11,13,7,2,-100,-100,-100,0,0,100,0.00,40.00,0,-999,0,0.00
2013-12-12,23,18,13,-100,-100,-100,0,0,100,0.00,40.00,0,-999,0,0.01
2013-12-13,19,17,13,-100,-100,-100,0,0,100,0.00,40.00,0,-999,0,0.00
2013-12-14,20,18,16,-100,-100,-100,0,0,100,0.00,40.00,0,-999,0,0.00
2013-12-15,24,22,20,-100,-100,-100,0,0,100,0.00,40.00,0,-999,0,0.00
2013-12-16,26,23,18,-100,-100,-100,0,0,100,0.00,40.00,0,-999,0,0.00
2013-12-17,31,25,21,-100,-100,-100,0,0,100,0.00,40.00,0,-999,0,0.00
2013-12-18,30,27,24,-100,-100,-100,0,0,100,0.00,40.00,0,-999,0,0.00
2013-12-19,24,9,-8,-100,-100,-100,0,0,100,0.00,40.00,0,-999,0,0.00
2013-12-20,11,6,2,-100,-100,-100,0,0,100,0.00,40.00,0,-999,0,0.00
2013-12-21,16,12,6,-100,-100,-100,0,0,100,0.00,40.00,0,-999,0,0.01
2013-12-22,19,15,12,-100,-100,-100,0,0,100,0.00,40.00,0,-999,0,0.02
2013-12-23,25,21,14,-100,-100,-100,0,0,100,0.00,40.00,0,-999,0,0.02
2013-12-24,18,15,12,-100,-100,-100,0,0,100,0.00,40.00,0,-999,0,0.01
2013-12-25,21,15,8,-100,-100,-100,0,0,100,0.00,40.00,0,-999,0,0.00
2013-12-26,28,24,18,-100,-100,-100,0,0,100,0.00,40.00,0,-999,0,0.01
2013-12-27,33,27,22,-100,-100,-100,0,0,100,0.00,40.00,0,-999,0,0.00
2013-12-28,22,19,13,-100,-100,-100,0,0,100,0.00,40.00,0,-999,0,0.00
2013-12-29,17,14,11,-100,-100,-100,0,0,100,0.00,40.00,0,-999,0,0.00
2013-12-30,21,20,18,-100,-100,-100,0,0,100,0.00,40.00,0,-999,0,0.00
2013-12-31,22,21,19,-100,-100,-100,0,0,100,0.00,40.00,0,-999,0,0.02
2014-1-1,19,17,12,-100,-100,-100,0,0,100,0.00,40.00,0,-999,0,0.02
2014-1-2,22,17,13,-100,-100,-100,0,0,100,0.00,40.00,0,-999,0,0.00